Weather Roundup
Issued by NWS Corpus Christi, TX

Home | Current Version | Previous Version | Text Only | Print | Product List | Glossary On
Versions: 1 2 3 4 5 6 7 8 9 10 11 12 13 14 15 16 17 18 19 20 21 22 23 24 25 26 27 28 29 30 31 32 33 34 35 36 37 38 39 40 41 42 43 44 45 46 47 48 49 50
000
ASUS44 KCRP 022310
HRRCRP

SOUTH TEXAS REGIONAL WEATHER ROUNDUP
NATIONAL WEATHER SERVICE CORPUS CHRISTI TX
500 PM CST FRI DEC 02 2016


TXZ229>244-030000-
...CORPUS CHRISTI AREA OBSERVATIONS...

CITY           SKY/WX    TMP DP  RH WIND       PRES   REMARKS
CORPUS CHRISTI CLOUDY    72  68  87 E14G30    29.88R
NAS CORPUS CHR CLOUDY    72  69  90 E23G32    29.86F
ROCKPORT         N/A    N/A N/A N/A MISG      29.89F
ALICE          CLOUDY    71  67  87 E16G25    29.88R
ORANGE GROVE   LGT RAIN  72  69  90 NE9       29.90R
FALFURRIAS     CLOUDY    73  70  89 E12G17    29.85R
$$

...VICTORIA AREA OBSERVATIONS...

CITY           SKY/WX    TMP DP  RH WIND       PRES   REMARKS
VICTORIA       LGT RAIN  64  60  87 E17G24    29.94S
BEEVILLE       CLOUDY    69  65  87 E12       29.91R
PLEASANTON     LGT RAIN  62  60  95 NE6       29.95R
SAN ANTONIO    LGT RAIN  60  56  86 NE10G18   29.97S FOG
$$

...LAREDO AREA OBSERVATIONS...

CITY           SKY/WX    TMP DP  RH WIND       PRES   REMARKS
LAREDO         CLOUDY    73  68  84 NE10      29.86R
COTULLA        CLOUDY    66  63  90 E9        29.89F FOG
DEL RIO        CLOUDY    61  60  97 E10       29.91R
MCALLEN        CLOUDY    82  67  60 SE13      29.82R
HEBBRONVILLE   LGT RAIN  71  69  91 E16       29.87S
$$

...OTHER TEXAS OBSERVATIONS...

CITY           SKY/WX    TMP DP  RH WIND       PRES   REMARKS
BROWNSVILLE    CLEAR     80  70  71 SE9       29.84R
HOUSTON        RAIN      57  51  80 E14       30.05S
COL. STATION   CLOUDY    62  35  36 E13       30.03F
AUSTIN         CLOUDY    61  54  77 NE9       30.00R
WACO           CLOUDY    62  38  40 E10       30.06R
FORT WORTH     CLOUDY    63  34  33 E10       30.08R
WICHITA FALLS  CLOUDY    53  44  71 E15       30.06S
LUBBOCK        RAIN      39  37  92 NE9       30.05R FOG
EL PASO        PTSUNNY   62  26  25 E7        29.86F
$$

...MARINE OBSERVATIONS...

STATION/POSITION TIME  SKY/WX   TEMP    WIND        PRES    VSBY  WAVE   SWELL
                                AIR SEA DIR/SP/G                  HT/PER HT/PER
                 (UTC)          (F)     (DEG/KT/KT) (MB)    (MI)  (FT/S) (FT/S)
PORT ARANSAS     2200            71 70   60/ 23/ 25 1011.6F
BUOY 90 E PORT A 2250            77 77  100/ 21/ 27 1011.5F        11/ 8   5/ 9
BUOY 45 SE BAFFI 2250            75 76   90/ 12/ 14 1010.6R         7/ 7   5/ 7
BUOY 200 E PT IS 2250            78 78  150/ 12/ 16 1013.3R         7/ 6   5/ 7
BUOY 15 E GALVES 2250            63 69   40/ 27/ 33 1015.6F         7/ 7   2/ 8
$$




USA.gov is the U.S. government's official web portal to all federal, state and local government web resources and services.